GEC8305 LIMC-EDDF

Flight info

Callsign GEC8305
Flight time 0h 37m
Altitude 32000
Route SRN6LXPEPAG2Q/35R PEPAG DCT ABESI N851 UTAVO DCT ROLSA DCT LADOL T163 EMPAX EMPAX5B
Aircraft MD11/H-SDE1E2E3FGHIJ2J3J4J5M1RWXY/LB1D1

Departure

Time 2026-05-07 13:53
Airport Milan Malpensa International Airport (LIMC)

Arrival

Time 2026-05-07 14:30
Airport Frankfurt Main Airport (EDDF)
Time Latitude Longitude Altitude Speed Heading
2026-05-07 13:30 45.61523 8.72002 749 ft 0 kts 259°
2026-05-07 13:39 45.61525 8.72018 749 ft 4 kts 259°
2026-05-07 13:39 45.61530 8.72056 749 ft 4 kts 259°
2026-05-07 13:39 45.61534 8.72090 748 ft 4 kts 255°
2026-05-07 13:40 45.61542 8.72119 749 ft 4 kts 218°
2026-05-07 13:40 45.61561 8.72130 749 ft 4 kts 175°
2026-05-07 13:40 45.61586 8.72125 746 ft 2 kts 169°
2026-05-07 13:40 45.61592 8.72123 748 ft 0 kts 169°
2026-05-07 13:43 45.61591 8.72123 749 ft 0 kts 169°
2026-05-07 13:44 45.61575 8.72128 749 ft 4 kts 169°
2026-05-07 13:44 45.61544 8.72136 746 ft 5 kts 169°
2026-05-07 13:44 45.61501 8.72147 745 ft 7 kts 169°
2026-05-07 13:44 45.61447 8.72161 748 ft 9 kts 169°
2026-05-07 13:45 45.61383 8.72179 749 ft 10 kts 169°
2026-05-07 13:45 45.61310 8.72200 749 ft 12 kts 169°
2026-05-07 13:45 45.61225 8.72223 745 ft 13 kts 169°
2026-05-07 13:45 45.61131 8.72249 745 ft 14 kts 169°
2026-05-07 13:46 45.61028 8.72278 745 ft 16 kts 169°
2026-05-07 13:46 45.60916 8.72309 747 ft 17 kts 169°
2026-05-07 13:46 45.60798 8.72343 745 ft 18 kts 169°
2026-05-07 13:46 45.60683 8.72383 749 ft 13 kts 153°
2026-05-07 13:47 45.60640 8.72472 745 ft 10 kts 103°
2026-05-07 13:47 45.60632 8.72577 746 ft 11 kts 95°
2026-05-07 13:47 45.60623 8.72687 746 ft 12 kts 97°
2026-05-07 13:47 45.60614 8.72806 746 ft 12 kts 95°
2026-05-07 13:48 45.60605 8.72934 745 ft 14 kts 96°
2026-05-07 13:48 45.60595 8.73074 745 ft 15 kts 96°
2026-05-07 13:48 45.60604 8.73215 745 ft 14 kts 66°
2026-05-07 13:48 45.60672 8.73295 749 ft 13 kts 20°
2026-05-07 13:49 45.60760 8.73343 746 ft 14 kts 21°
2026-05-07 13:49 45.60853 8.73396 749 ft 15 kts 19°
2026-05-07 13:49 45.60955 8.73393 747 ft 15 kts 348°
2026-05-07 13:49 45.61056 8.73364 749 ft 14 kts 349°
2026-05-07 13:50 45.61145 8.73340 746 ft 12 kts 349°
2026-05-07 13:50 45.61235 8.73314 749 ft 15 kts 349°
2026-05-07 13:50 45.61354 8.73281 747 ft 19 kts 349°
2026-05-07 13:50 45.61500 8.73240 747 ft 23 kts 349°
2026-05-07 13:51 45.61586 8.73235 748 ft 3 kts 35°
2026-05-07 13:51 45.61610 8.73275 749 ft 8 kts 60°
2026-05-07 13:51 45.61629 8.73380 748 ft 14 kts 79°
2026-05-07 13:51 45.61602 8.73503 746 ft 13 kts 116°
2026-05-07 13:52 45.61587 8.73630 748 ft 12 kts 79°
2026-05-07 13:52 45.61643 8.73721 743 ft 12 kts 15°
2026-05-07 13:52 45.61704 8.73713 746 ft 0 kts 349°
2026-05-07 13:52 45.61754 8.73699 745 ft 33 kts 349°
2026-05-07 13:53 45.62281 8.73552 745 ft 119 kts 349°
2026-05-07 13:53 45.63331 8.73262 799 ft 179 kts 349°
2026-05-07 13:53 45.64603 8.72911 1478 ft 190 kts 348°
2026-05-07 13:53 45.65931 8.72530 2318 ft 198 kts 349°
2026-05-07 13:54 45.67310 8.72369 3224 ft 199 kts 359°
2026-05-07 13:54 45.68631 8.72382 3881 ft 187 kts
2026-05-07 13:54 45.69946 8.72420 4650 ft 192 kts
2026-05-07 13:54 45.71301 8.72614 5379 ft 199 kts 13°
2026-05-07 13:55 45.72586 8.73454 6002 ft 210 kts 38°
2026-05-07 13:55 45.73525 8.75098 6538 ft 219 kts 65°
2026-05-07 13:55 45.74084 8.77181 7063 ft 228 kts 71°
2026-05-07 13:55 45.74432 8.79440 7544 ft 239 kts 90°
2026-05-07 13:56 45.74169 8.81783 8067 ft 246 kts 106°
2026-05-07 13:56 45.73560 8.84126 8576 ft 256 kts 119°
2026-05-07 13:56 45.72602 8.86318 9207 ft 263 kts 125°
2026-05-07 13:56 45.71525 8.88512 9838 ft 275 kts 126°
2026-05-07 13:57 45.70383 8.90788 10474 ft 287 kts 126°
2026-05-07 13:57 45.69194 8.93146 11112 ft 293 kts 126°
2026-05-07 13:57 45.68010 8.95498 11718 ft 296 kts 126°
2026-05-07 13:57 45.66827 8.97854 12346 ft 291 kts 126°
2026-05-07 13:58 45.65634 9.00243 12979 ft 299 kts 124°
2026-05-07 13:58 45.64766 9.02967 13605 ft 304 kts 102°
2026-05-07 13:58 45.64739 9.05980 14227 ft 306 kts 77°
2026-05-07 13:58 45.65575 9.08733 14837 ft 309 kts 52°
2026-05-07 13:59 45.67151 9.10802 15473 ft 310 kts 28°
2026-05-07 13:59 45.69195 9.11778 16117 ft 311 kts
2026-05-07 13:59 45.71379 9.11741 16494 ft 326 kts 353°
2026-05-07 13:59 45.73689 9.11323 16629 ft 349 kts 350°
2026-05-07 14:00 45.76169 9.10799 16762 ft 371 kts 350°
2026-05-07 14:00 45.78806 9.10271 16936 ft 389 kts 351°
2026-05-07 14:00 45.81523 9.09776 17531 ft 394 kts 352°
2026-05-07 14:00 45.84260 9.09312 18166 ft 398 kts 352°
2026-05-07 14:01 45.87027 9.08865 18770 ft 401 kts 352°
2026-05-07 14:01 45.89777 9.08433 19341 ft 405 kts 352°
2026-05-07 14:01 45.92595 9.07996 19878 ft 408 kts 352°
2026-05-07 14:01 45.95430 9.07554 20412 ft 411 kts 352°
2026-05-07 14:02 45.98300 9.07104 20954 ft 414 kts 352°
2026-05-07 14:02 46.01183 9.06642 21487 ft 417 kts 352°
2026-05-07 14:02 46.04077 9.06170 22048 ft 420 kts 352°
2026-05-07 14:02 46.06996 9.05694 22581 ft 423 kts 352°
2026-05-07 14:03 46.09901 9.05219 23108 ft 426 kts 352°
2026-05-07 14:03 46.12862 9.04736 23640 ft 429 kts 352°
2026-05-07 14:03 46.15845 9.04259 24159 ft 432 kts 353°
2026-05-07 14:03 46.18823 9.03833 24685 ft 436 kts 353°
2026-05-07 14:04 46.21869 9.03419 25200 ft 440 kts 353°
2026-05-07 14:04 46.24941 9.03012 25716 ft 443 kts 353°
2026-05-07 14:04 46.28029 9.02603 26218 ft 447 kts 353°
2026-05-07 14:04 46.31106 9.02193 26700 ft 450 kts 353°
2026-05-07 14:05 46.34246 9.01772 27177 ft 454 kts 353°
2026-05-07 14:05 46.37408 9.01348 27645 ft 457 kts 353°
2026-05-07 14:05 46.40590 9.00922 28103 ft 460 kts 353°
2026-05-07 14:05 46.52007 8.99338 29624 ft 471 kts 352°
2026-05-07 14:06 46.65122 8.97562 31015 ft 481 kts 352°
2026-05-07 14:06 46.78518 8.95747 31990 ft 483 kts 352°
2026-05-07 14:06 46.91931 8.93916 32007 ft 484 kts 353°
2026-05-07 14:07 47.18594 8.90317 32017 ft 482 kts 353°
2026-05-07 14:07 47.45478 8.90023 32018 ft 483 kts
2026-05-07 14:08 47.72378 8.92030 32017 ft 482 kts
2026-05-07 14:08 47.99132 8.93997 32026 ft 482 kts
2026-05-07 14:09 48.06429 8.94527 32026 ft 481 kts
2026-05-07 14:09 48.13058 8.95007 32026 ft 480 kts
2026-05-07 14:10 48.19902 8.95713 32027 ft 481 kts
2026-05-07 14:10 48.46539 8.99783 31983 ft 475 kts
2026-05-07 14:10 48.59453 9.01762 30092 ft 468 kts
2026-05-07 14:11 48.72002 9.04387 27600 ft 469 kts
2026-05-07 14:11 48.75238 9.05192 26968 ft 471 kts
2026-05-07 14:11 48.78465 9.05999 26328 ft 468 kts
2026-05-07 14:11 48.81633 9.06783 25689 ft 463 kts
2026-05-07 14:12 48.84809 9.07560 25059 ft 458 kts
2026-05-07 14:12 48.87953 9.08280 24430 ft 453 kts
2026-05-07 14:12 48.91067 9.08836 23776 ft 449 kts
2026-05-07 14:12 48.94159 9.09297 23120 ft 444 kts
2026-05-07 14:13 48.97225 9.09720 22472 ft 438 kts
2026-05-07 14:13 49.00213 9.10122 22091 ft 434 kts
2026-05-07 14:13 49.03213 9.10530 21511 ft 433 kts
2026-05-07 14:13 49.06209 9.10948 20682 ft 427 kts
2026-05-07 14:14 49.09149 9.11362 19962 ft 421 kts
2026-05-07 14:14 49.12048 9.11785 19297 ft 415 kts
2026-05-07 14:14 49.14891 9.12203 18662 ft 410 kts
2026-05-07 14:14 49.17722 9.12618 18039 ft 406 kts
2026-05-07 14:15 49.20519 9.13025 17434 ft 402 kts
2026-05-07 14:15 49.23281 9.13424 17055 ft 398 kts
2026-05-07 14:15 49.25998 9.13818 16686 ft 395 kts
2026-05-07 14:15 49.28723 9.14327 16304 ft 392 kts
2026-05-07 14:16 49.31410 9.15112 15638 ft 392 kts 11°
2026-05-07 14:16 49.34074 9.16034 14814 ft 390 kts 12°
2026-05-07 14:16 49.36683 9.16987 14071 ft 385 kts 12°
2026-05-07 14:16 49.38387 9.17613 13643 ft 371 kts 12°
2026-05-07 14:17 49.40821 9.18506 13066 ft 347 kts 12°
2026-05-07 14:17 49.43102 9.19329 12558 ft 330 kts 12°
2026-05-07 14:17 49.45340 9.20124 12073 ft 328 kts 11°
2026-05-07 14:17 49.47634 9.20931 11605 ft 356 kts 11°
2026-05-07 14:18 49.50077 9.21794 11214 ft 362 kts 12°
2026-05-07 14:18 49.52532 9.22658 11034 ft 361 kts
2026-05-07 14:18 49.55019 9.22848 10796 ft 353 kts 351°
2026-05-07 14:18 49.57366 9.21717 10430 ft 355 kts 333°
2026-05-07 14:19 49.59559 9.19966 10127 ft 353 kts 330°
2026-05-07 14:19 49.61726 9.18143 10067 ft 354 kts 330°
2026-05-07 14:19 49.63865 9.16339 10044 ft 353 kts 330°
2026-05-07 14:19 49.66036 9.14527 10045 ft 354 kts 331°
2026-05-07 14:20 49.68224 9.12728 10045 ft 354 kts 331°
2026-05-07 14:20 49.70400 9.10945 10047 ft 354 kts 331°
2026-05-07 14:20 49.72578 9.09165 10044 ft 354 kts 331°
2026-05-07 14:20 49.74730 9.07407 10045 ft 354 kts 331°
2026-05-07 14:21 49.76907 9.05625 10045 ft 354 kts 331°
2026-05-07 14:21 49.79092 9.03830 9703 ft 354 kts 331°
2026-05-07 14:21 49.81236 9.02069 9207 ft 351 kts 331°
2026-05-07 14:21 49.83386 9.00302 8705 ft 349 kts 331°
2026-05-07 14:22 49.85522 8.98544 8194 ft 346 kts 331°
2026-05-07 14:22 49.87635 8.96803 7713 ft 343 kts 331°
2026-05-07 14:22 49.89764 8.95139 7197 ft 339 kts 339°
2026-05-07 14:22 49.92069 8.94422 6695 ft 335 kts 356°
2026-05-07 14:23 49.94345 8.94465 6204 ft 328 kts
2026-05-07 14:23 49.96608 8.94685 5703 ft 323 kts
2026-05-07 14:23 49.98840 8.94939 5261 ft 316 kts
2026-05-07 14:23 50.01008 8.95196 4881 ft 308 kts
2026-05-07 14:24 50.03127 8.95443 4515 ft 301 kts
2026-05-07 14:24 50.05158 8.95676 4256 ft 291 kts
2026-05-07 14:24 50.07145 8.95899 4080 ft 279 kts
2026-05-07 14:24 50.09012 8.95918 4030 ft 260 kts 348°
2026-05-07 14:25 50.10564 8.94829 4037 ft 235 kts 319°
2026-05-07 14:25 50.11461 8.92805 4042 ft 228 kts 290°
2026-05-07 14:25 50.11635 8.90395 4035 ft 228 kts 259°
2026-05-07 14:25 50.11119 8.88045 4054 ft 231 kts 247°
2026-05-07 14:26 50.10473 8.85760 3936 ft 232 kts 248°
2026-05-07 14:26 50.09892 8.83497 3640 ft 215 kts 250°
2026-05-07 14:26 50.09398 8.81402 3366 ft 195 kts 251°
2026-05-07 14:26 50.08948 8.79474 3117 ft 187 kts 250°
2026-05-07 14:27 50.08501 8.77579 2873 ft 185 kts 251°
2026-05-07 14:27 50.08058 8.75702 2637 ft 183 kts 251°
2026-05-07 14:27 50.07640 8.73943 2369 ft 165 kts 250°
2026-05-07 14:27 50.07247 8.72283 2190 ft 161 kts 250°
2026-05-07 14:28 50.06866 8.70684 1979 ft 158 kts 250°
2026-05-07 14:28 50.06507 8.69059 1749 ft 158 kts 255°
2026-05-07 14:28 50.06286 8.67394 1501 ft 157 kts 259°
2026-05-07 14:28 50.06079 8.65728 1272 ft 156 kts 257°
2026-05-07 14:29 50.05803 8.64113 1098 ft 156 kts 251°
2026-05-07 14:29 50.05437 8.62524 922 ft 156 kts 249°
2026-05-07 14:29 50.05055 8.60966 730 ft 150 kts 249°
2026-05-07 14:29 50.04679 8.59389 518 ft 158 kts 249°
2026-05-07 14:30 50.04310 8.57827 375 ft 145 kts 250°
2026-05-07 14:30 50.04009 8.56577 368 ft 94 kts 250°
2026-05-07 14:30 50.03812 8.55759 362 ft 62 kts 249°
2026-05-07 14:30 50.03676 8.55185 350 ft 43 kts 253°
2026-05-07 14:31 50.03692 8.54993 354 ft 7 kts 285°
2026-05-07 14:31 50.03701 8.54933 352 ft 5 kts 282°
2026-05-07 14:31 50.03707 8.54889 355 ft 3 kts 281°
2026-05-07 14:31 50.03710 8.54859 352 ft 2 kts 280°
2026-05-07 14:32 50.03712 8.54843 356 ft 1 kts 280°
2026-05-07 14:32 50.03714 8.54832 354 ft 2 kts 285°
2026-05-07 14:32 50.03730 8.54807 356 ft 3 kts 329°
2026-05-07 14:32 50.03746 8.54810 353 ft 3 kts 11°
2026-05-07 14:33 50.03772 8.54831 355 ft 5 kts 37°
2026-05-07 14:33 50.03786 8.54856 358 ft 1 kts 53°
2026-05-07 14:33 50.03791 8.54874 362 ft 4 kts 66°
2026-05-07 14:33 50.03807 8.54936 360 ft 9 kts 68°
2026-05-07 14:34 50.03838 8.55024 356 ft 5 kts 42°
2026-05-07 14:34 50.03864 8.55027 358 ft 6 kts 356°
2026-05-07 14:34 50.03914 8.55002 365 ft 9 kts 339°
2026-05-07 14:34 50.03976 8.54953 367 ft 9 kts 311°
2026-05-07 14:35 50.03981 8.54864 368 ft 9 kts 252°
2026-05-07 14:35 50.03960 8.54772 365 ft 9 kts 257°
2026-05-07 14:35 50.03983 8.54684 363 ft 9 kts 322°
2026-05-07 14:35 50.04025 8.54660 360 ft 5 kts 339°
2026-05-07 14:36 50.04052 8.54645 358 ft 3 kts 340°
2026-05-07 14:36 50.04086 8.54629 360 ft 5 kts 351°
2026-05-07 14:36 50.04106 8.54661 357 ft 4 kts 74°
2026-05-07 14:36 50.04115 8.54709 359 ft 2 kts 71°
2026-05-07 14:37 50.04118 8.54720 365 ft 1 kts 71°
2026-05-07 14:37 50.04121 8.54734 359 ft 0 kts 70°
2026-05-07 14:37 50.04122 8.54738 359 ft 0 kts 70°